| time (UTC) | temp F | wind direction | speed knots | gust knots | rain 1hr in | rain 24hr in | rain mn in | humidity % | barometer mb |
| 20260509053412 | 75 | 356 | 0.0 | 0.0 | 0.00 | 0.00 | 0.00 | 17 | 1007.2 |
| 20260509052400 | 78 | 356 | 0.0 | 0.0 | 0.00 | 0.00 | 0.00 | 16 | 1007.2 |
| 20260509051418 | 78 | 7 | 0.0 | 0.0 | 0.00 | 0.00 | 0.00 | 16 | 1007.2 |
| 20260509050410 | 78 | 7 | 0.0 | 0.0 | 0.00 | 0.00 | 0.00 | 16 | 1007.1 |
| 20260509045340 | 78 | 7 | 0.0 | 0.0 | 0.00 | 0.00 | 0.00 | 16 | 1007.0 |
| 20260509043211 | 83 | 334 | 0.0 | 0.0 | 0.00 | 0.00 | 0.00 | 14 | 1006.9 |
| 20260509042156 | 86 | 334 | 1.7 | 4.3 | 0.00 | 0.00 | 0.00 | 13 | 1006.8 |
| 20260509041208 | 87 | 45 | 0.0 | 3.5 | 0.00 | 0.00 | 0.00 | 12 | 1006.6 |
| 20260509040224 | 87 | 28 | 0.0 | 3.5 | 0.00 | 0.00 | 0.00 | 12 | 1006.4 |
| 20260509035235 | 88 | 357 | 0.0 | 3.5 | 0.00 | 0.00 | 0.00 | 12 | 1006.3 |
| 20260509034252 | 88 | 30 | 0.0 | 7.0 | 0.00 | 0.00 | 0.00 | 12 | 1006.1 |
| 20260509033256 | 88 | 79 | 0.0 | 0.0 | 0.00 | 0.00 | 0.00 | 12 | 1006.0 |
| 20260509032230 | 88 | 82 | 0.0 | 0.0 | 0.00 | 0.00 | 0.00 | 12 | 1006.0 |
| 20260509031158 | 88 | 75 | 0.0 | 0.0 | 0.00 | 0.00 | 0.00 | 12 | 1005.9 |
| 20260509030216 | 89 | 46 | 0.0 | 1.7 | 0.00 | 0.00 | 0.00 | 12 | 1005.8 |
| 20260509025216 | 90 | 146 | 1.7 | 7.0 | 0.00 | 0.00 | 0.00 | 12 | 1005.6 |
| 20260509023052 | 91 | 89 | 3.5 | 9.6 | 0.00 | 0.00 | 0.00 | 11 | 1005.4 |
| 20260509022054 | 92 | 242 | 5.2 | 11.3 | 0.00 | 0.00 | 0.00 | 11 | 1005.2 |
| 20260509021053 | 92 | 207 | 7.0 | 13.9 | 0.00 | 0.00 | 0.00 | 11 | 1005.1 |
| 20260509020103 | 92 | 222 | 7.0 | 13.9 | 0.00 | 0.00 | 0.00 | 11 | 1005.1 |
| 20260509015116 | 92 | 214 | 3.5 | 13.9 | 0.00 | 0.00 | 0.00 | 11 | 1005.0 |
| 20260509014058 | 92 | 255 | 5.2 | 13.9 | 0.00 | 0.00 | 0.00 | 11 | 1004.9 |
| 20260509013106 | 93 | 252 | 5.2 | 13.9 | 0.00 | 0.00 | 0.00 | 11 | 1004.9 |
| 20260509012107 | 93 | 235 | 7.0 | 13.9 | 0.00 | 0.00 | 0.00 | 11 | 1004.9 |
| 20260509011101 | 94 | 257 | 2.6 | 12.2 | 0.00 | 0.00 | 0.00 | 11 | 1005.0 |
| 20260509010058 | 94 | 212 | 5.2 | 13.9 | 0.00 | 0.00 | 0.00 | 11 | 1005.1 |
| 20260509005036 | 94 | 252 | 6.1 | 13.9 | 0.00 | 0.00 | 0.00 | 11 | 1005.2 |
| 20260509004054 | 95 | 243 | 6.1 | 12.2 | 0.00 | 0.00 | 0.00 | 11 | 1005.1 |
| 20260509003025 | 95 | 233 | 7.8 | 16.5 | 0.00 | 0.00 | 0.00 | 12 | 1005.2 |
| 20260509002006 | 95 | 232 | 5.2 | 11.3 | 0.00 | 0.00 | 0.00 | 12 | 1005.3 |
| 20260509000935 | 95 | 225 | 5.2 | 11.3 | 0.00 | 0.00 | 0.00 | 11 | 1005.3 |
| 20260508235950 | 96 | 237 | 3.5 | 10.4 | 0.00 | 0.00 | 0.00 | 11 | 1005.4 |
| 20260508235009 | 95 | 248 | 6.1 | 11.3 | 0.00 | 0.00 | 0.00 | 12 | 1005.5 |
| 20260508231727 | 95 | 227 | 7.0 | 13.0 | 0.00 | 0.00 | 0.00 | 12 | 1005.9 |
| 20260508230718 | 94 | 229 | 6.1 | 15.6 | 0.00 | 0.00 | 0.00 | 13 | 1006.0 |
| 20260508225656 | 94 | 233 | 7.8 | 15.6 | 0.00 | 0.00 | 0.00 | 12 | 1006.1 |
| 20260508224643 | 94 | 217 | 5.2 | 14.8 | 0.00 | 0.00 | 0.00 | 13 | 1006.3 |
| 20260508222545 | 93 | 249 | 6.1 | 15.6 | 0.00 | 0.00 | 0.00 | 14 | 1006.6 |
| 20260508221521 | 93 | 240 | 6.1 | 13.9 | 0.00 | 0.00 | 0.00 | 13 | 1006.9 |
| 20260508220515 | 93 | 170 | 5.2 | 13.0 | 0.00 | 0.00 | 0.00 | 13 | 1007.1 |
| 20260508215447 | 93 | 225 | 6.1 | 11.3 | 0.00 | 0.00 | 0.00 | 13 | 1007.2 |
| 20260508214449 | 92 | 227 | 6.1 | 15.6 | 0.00 | 0.00 | 0.00 | 14 | 1007.4 |
| 20260508213501 | 92 | 166 | 6.1 | 15.6 | 0.00 | 0.00 | 0.00 | 14 | 1007.6 |
| 20260508212458 | 93 | 210 | 6.1 | 11.3 | 0.00 | 0.00 | 0.00 | 14 | 1007.7 |
| 20260508211458 | 92 | 212 | 6.1 | 16.5 | 0.00 | 0.00 | 0.00 | 14 | 1007.9 |
| 20260508210458 | 91 | 205 | 5.2 | 16.5 | 0.00 | 0.00 | 0.00 | 14 | 1008.1 |
| 20260508205456 | 92 | 269 | 7.0 | 13.9 | 0.00 | 0.00 | 0.00 | 14 | 1008.2 |
| 20260508204451 | 92 | 199 | 3.5 | 11.3 | 0.00 | 0.00 | 0.00 | 14 | 1008.1 |
| 20260508203445 | 92 | 268 | 5.2 | 13.0 | 0.00 | 0.00 | 0.00 | 13 | 1008.3 |
| 20260508202450 | 91 | 220 | 5.2 | 13.0 | 0.00 | 0.00 | 0.00 | 13 | 1008.4 |
| 20260508201439 | 91 | 238 | 3.5 | 7.8 | 0.00 | 0.00 | 0.00 | 13 | 1008.4 |
| 20260508194240 | 90 | 266 | 3.5 | 8.7 | 0.00 | 0.00 | 0.00 | 14 | 1009.0 |
| 20260508192055 | 89 | 165 | 3.5 | 8.7 | 0.00 | 0.00 | 0.00 | 15 | 1009.2 |
| 20260508191102 | 89 | 180 | 2.6 | 8.7 | 0.00 | 0.00 | 0.00 | 15 | 1009.4 |
| 20260508190048 | 89 | 232 | 2.6 | 7.8 | 0.00 | 0.00 | 0.00 | 15 | 1009.4 |
| 20260508185058 | 88 | 234 | 2.6 | 7.8 | 0.00 | 0.00 | 0.00 | 15 | 1009.5 |
| 20260508184111 | 88 | 222 | 2.6 | 7.0 | 0.00 | 0.00 | 0.00 | 16 | 1009.7 |
| 20260508181925 | 86 | 196 | 3.5 | 9.6 | 0.00 | 0.00 | 0.00 | 17 | 1010.1 |
| 20260508180855 | 86 | 153 | 2.6 | 9.6 | 0.00 | 0.00 | 0.00 | 17 | 1010.0 |
| 20260508175833 | 86 | 205 | 2.6 | 7.8 | 0.00 | 0.00 | 0.00 | 17 | 1010.2 |
| 20260508174804 | 85 | 199 | 3.5 | 7.8 | 0.00 | 0.00 | 0.00 | 17 | 1010.2 |
| 20260508173814 | 86 | 220 | 0.9 | 5.2 | 0.00 | 0.00 | 0.00 | 17 | 1010.1 |
| 20260508172834 | 85 | 235 | 2.6 | 7.8 | 0.00 | 0.00 | 0.00 | 17 | 1010.2 |
| 20260508171846 | 84 | 188 | 1.7 | 8.7 | 0.00 | 0.00 | 0.00 | 18 | 1010.3 |
| 20260508170832 | 85 | 210 | 1.7 | 8.7 | 0.00 | 0.00 | 0.00 | 17 | 1010.5 |
| 20260508165822 | 84 | 246 | 2.6 | 5.2 | 0.00 | 0.00 | 0.00 | 17 | 1010.5 |
| 20260508164800 | 84 | 124 | 2.6 | 6.1 | 0.00 | 0.00 | 0.00 | 18 | 1010.5 |
| 20260508163820 | 83 | 172 | 2.6 | 6.1 | 0.00 | 0.00 | 0.00 | 18 | 1010.6 |
| 20260508162822 | 83 | 198 | 1.7 | 6.1 | 0.00 | 0.00 | 0.00 | 18 | 1010.6 |
| 20260508161846 | 82 | 231 | 2.6 | 5.2 | 0.00 | 0.00 | 0.00 | 18 | 1010.7 |
| 20260508160857 | 82 | 217 | 0.9 | 5.2 | 0.00 | 0.00 | 0.00 | 18 | 1010.6 |
| 20260508155852 | 81 | 218 | 0.9 | 0.9 | 0.00 | 0.00 | 0.00 | 18 | 1010.7 |
| 20260508154827 | 82 | 227 | 0.9 | 3.5 | 0.00 | 0.00 | 0.00 | 18 | 1010.6 |
| 20260508153814 | 82 | 207 | 0.0 | 1.7 | 0.00 | 0.00 | 0.00 | 18 | 1010.6 |
| 20260508152835 | 81 | 259 | 0.0 | 0.0 | 0.00 | 0.00 | 0.00 | 19 | 1010.6 |
| 20260508150659 | 81 | 216 | 0.0 | 0.0 | 0.00 | 0.00 | 0.00 | 19 | 1010.7 |
| 20260508145654 | 80 | 54 | 0.0 | 0.0 | 0.00 | 0.00 | 0.00 | 19 | 1010.8 |
| 20260508144701 | 78 | 330 | 0.0 | 0.9 | 0.00 | 0.00 | 0.00 | 20 | 1010.9 |
| 20260508142543 | 74 | 316 | 2.6 | 4.3 | 0.00 | 0.00 | 0.00 | 22 | 1011.0 |
| 20260508141556 | 73 | 5 | 1.7 | 4.3 | 0.00 | 0.00 | 0.00 | 22 | 1010.9 |
| 20260508140602 | 72 | 349 | 1.7 | 3.5 | 0.00 | 0.00 | 0.00 | 22 | 1010.7 |
| 20260508135549 | 71 | 350 | 0.0 | 0.0 | 0.00 | 0.00 | 0.00 | 23 | 1010.6 |
| 20260508134555 | 70 | 8 | 0.9 | 0.0 | 0.00 | 0.00 | 0.00 | 24 | 1010.6 |
| 20260508133619 | 68 | 12 | 2.6 | 5.2 | 0.00 | 0.00 | 0.00 | 25 | 1010.4 |
| 20260508132605 | 67 | 323 | 3.5 | 6.1 | 0.00 | 0.00 | 0.00 | 24 | 1010.4 |
| 20260508131604 | 67 | 4 | 3.5 | 7.0 | 0.00 | 0.00 | 0.00 | 24 | 1010.4 |
| 20260508130545 | 65 | 326 | 6.1 | 8.7 | 0.00 | 0.00 | 0.00 | 24 | 1010.3 |
| 20260508125556 | 65 | 323 | 4.3 | 8.7 | 0.00 | 0.00 | 0.00 | 24 | 1010.1 |
| 20260508124559 | 65 | 304 | 0.0 | 5.2 | 0.00 | 0.00 | 0.00 | 26 | 1009.8 |
| 20260508123624 | 64 | 42 | 0.0 | 0.0 | 0.00 | 0.00 | 0.00 | 27 | 1009.7 |
| 20260508122557 | 65 | 27 | 0.0 | 3.5 | 0.00 | 0.00 | 0.00 | 25 | 1009.6 |
| 20260508121546 | 65 | 92 | 0.9 | 0.9 | 0.00 | 0.00 | 0.00 | 25 | 1009.6 |
| 20260508120547 | 65 | 319 | 1.7 | 5.2 | 0.00 | 0.00 | 0.00 | 24 | 1009.5 |
| 20260508115558 | 64 | 19 | 0.0 | 0.0 | 0.00 | 0.00 | 0.00 | 26 | 1009.5 |
| 20260508113432 | 65 | 49 | 0.0 | 1.7 | 0.00 | 0.00 | 0.00 | 25 | 1009.6 |
| 20260508112440 | 65 | 315 | 0.0 | 0.0 | 0.00 | 0.00 | 0.00 | 24 | 1009.5 |
| 20260508111419 | 64 | 34 | 0.0 | 0.0 | 0.00 | 0.00 | 0.00 | 25 | 1009.4 |
| 20260508110421 | 64 | 35 | 0.0 | 0.0 | 0.00 | 0.00 | 0.00 | 24 | 1009.3 |
| 20260508105435 | 65 | 24 | 0.0 | 0.0 | 0.00 | 0.00 | 0.00 | 23 | 1009.3 |
| 20260508104406 | 67 | 26 | 0.9 | 2.6 | 0.00 | 0.00 | 0.00 | 22 | 1009.2 |
| 20260508103431 | 68 | 51 | 0.9 | 0.0 | 0.00 | 0.00 | 0.00 | 21 | 1009.3 |
| 20260508102452 | 68 | 327 | 2.6 | 5.2 | 0.00 | 0.00 | 0.00 | 20 | 1009.2 |
| 20260508101431 | 69 | 15 | 2.6 | 5.2 | 0.00 | 0.00 | 0.00 | 19 | 1009.2 |
| 20260508095334 | 69 | 357 | 0.9 | 3.5 | 0.00 | 0.00 | 0.00 | 19 | 1009.2 |
| 20260508094320 | 69 | 23 | 0.0 | 0.0 | 0.00 | 0.00 | 0.00 | 19 | 1009.1 |
| 20260508092142 | 68 | 336 | 1.7 | 5.2 | 0.00 | 0.00 | 0.00 | 20 | 1009.0 |
| 20260508091142 | 66 | 52 | 0.0 | 1.7 | 0.00 | 0.00 | 0.00 | 21 | 1009.0 |
| 20260508090111 | 67 | 23 | 0.0 | 0.0 | 0.00 | 0.00 | 0.00 | 20 | 1009.0 |
| 20260508085048 | 68 | 34 | 0.0 | 0.0 | 0.00 | 0.00 | 0.00 | 20 | 1009.1 |
| 20260508084048 | 68 | 329 | 0.0 | 4.3 | 0.00 | 0.00 | 0.00 | 20 | 1009.2 |
| 20260508083048 | 66 | 34 | 0.0 | 0.0 | 0.00 | 0.00 | 0.00 | 21 | 1009.2 |
| 20260508080904 | 68 | 26 | 0.0 | 1.7 | 0.00 | 0.00 | 0.00 | 20 | 1009.2 |
| 20260508074735 | 68 | 15 | 0.0 | 0.0 | 0.00 | 0.00 | 0.00 | 20 | 1009.3 |
| 20260508073719 | 67 | 48 | 0.0 | 0.0 | 0.00 | 0.00 | 0.00 | 20 | 1009.4 |
| 20260508072738 | 67 | 48 | 0.0 | 0.0 | 0.00 | 0.00 | 0.00 | 20 | 1009.4 |
| 20260508071745 | 69 | 33 | 0.0 | 0.0 | 0.00 | 0.00 | 0.00 | 20 | 1009.4 |
| 20260508070715 | 69 | 23 | 0.0 | 0.0 | 0.00 | 0.00 | 0.00 | 19 | 1009.5 |
| 20260508065644 | 68 | 30 | 0.0 | 0.0 | 0.00 | 0.00 | 0.00 | 20 | 1009.3 |
| 20260508064612 | 70 | 25 | 0.0 | 0.0 | 0.00 | 0.00 | 0.00 | 18 | 1009.3 |
| 20260508063545 | 71 | 25 | 0.0 | 0.0 | 0.00 | 0.00 | 0.00 | 18 | 1009.3 |
| 20260508062602 | 72 | 25 | 0.0 | 0.0 | 0.00 | 0.00 | 0.00 | 18 | 1009.3 |
| 20260508060433 | 70 | 25 | 0.0 | 0.9 | 0.00 | 0.00 | 0.00 | 18 | 1009.3 |
| 20260508055406 | 70 | 359 | 0.0 | 0.0 | 0.00 | 0.00 | 0.00 | 18 | 1009.3 |
| 20260508054337 | 71 | 328 | 0.0 | 0.0 | 0.00 | 0.00 | 0.00 | 18 | 1009.3 |